Location: Be Tobo
(6.6442°N, 10.6239°W)
Time: 00:43:22
(UTC+00:00)

Sich 1 Rocket - Pass Details

Date: 18 September 2020
Orbit: 617 x 652 km, 82.5° (Epoch: 21 October)

Event Time Altitude Azimuth Distance (km) Brightness Sun altitude
Rises 19:09:11 0° 170° (S) 2,892 6.9 -8.0°
Reaches altitude 10° 19:11:31 10° 162° (SSE) 1,990 6.0 -8.6°
Maximum altitude 19:15:38 39° 93° (E) 933 4.0 -9.6°
Drops below altitude 10° 19:19:47 10° 24° (NNE) 2,005 6.0 -10.6°
Sets 19:22:08 0° 16° (NNE) 2,918 6.9 -11.2°
